SCP
0 0 1 1 1 1 1 1 1 1 0 0 0 0 0 0 0 0 0 0 0 0 0 0 0 0 0 0 0 0 0 0
0 0 1 1 1 1 1 1 1 1 1 0 0 0 0 0 0 0 0 0 0 0 0 0 -0 0 0 0 0 0 0 0
0 0 0 1 1 1 1 1 1 1 1 1 1 1 1 1 1 0 0 0 0 0 0 0 0 0 0 0 0 0 0 0
0 0 0 2 1 1 2 2 2 2 1 1 1 1 1 1 1 1 1 0 0 0 0 0 0 0 0 0 0 0 0 0
0 0 0 1 2 1 1 2 2 2 1 1 1 1 2 1 1 1 1 0 0 0 0 0 0 0 0 0 0 0 0 0
0 0 0 0 1 1 1 1 2 1 1 2 1 1 2 0 0 1 1 1 1 0 0 0 0 0 0 0 0 0 0 0
0 0 0 0 1 1 1 1 2 1 1 1 1 1 1 1 1 0 1 1 0 0 0 0 0 0 0 0 0 0 0 0
0 0 0 3 3 1 1 1 2 1 1 1 1 2 1 1 0 1 1 1 1 0 0 0 0 0 0 0 0 0 0 0
0 0 0 1 3 3 1 1 2 1 1 1 1 2 2 1 1 1 1 1 2 0 0 1 0 0 0 0 0 0 0 0
0 0 0 1 4 4 4 2 2 2 1 1 1 1 1 1 1 1 1 1 1 0 0 0 0 0 0 0 0 0 0 0
0 0 0 1 3 3 3 4 5 4 2 1 1 1 1 1 1 1 1 1 1 1 0 1 0 0 0 0 0 0 0 0
0 -0 -0 1 2 4 3 3 4 2 1 1 1 1 1 1 1 1 1 1 1 1 0 1 0 0 0 0 0 0 0 0
0 -0 0 0 1 2 3 3 3 1 2 1 1 1 1 1 1 1 1 1 1 1 1 1 0 0 0 0 0 0 0 0
0 0 0 0 0 1 2 2 2 3 1 1 1 1 1 1 1 1 1 1 1 1 0 1 0 0 0 0 0 0 0 0
0 0 0 0 1 2 2 2 1 1 1 1 1 1 1 1 1 1 1 1 1 1 0 0 0 0 0 0 0 0 0 0
0 0 0 0 2 2 1 1 1 1 1 1 1 1 1 1 1 2 1 1 1 0 0 0 0 0 0 0 0 0 0 0
0 0 0 0 1 1 1 1 1 1 0 1 1 1 1 1 1 1 1 0 0 0 0 0 0 0 0 0 0 0 0 0
0 0 0 0 1 1 1 1 1 1 1 1 0 0 1 1 1 0 0 0 0 0 0 0 0 0 0 0 0 0 0 0
0 0 0 0 1 1 1 1 1 0 0 1 1 0 1 0 0 0 0 0 0 0 0 0 0 0 0 0 -0 -0 0 0
Wind_Speed_500mb
28 32 27 30 33 36 33 30 26 23 19 17 15 15 16 20 20 19 21 24 25 27 27 27 24 23 23 27 29 26 23 23
24 28 31 35 37 39 38 35 32 28 24 23 20 20 21 24 26 21 23 26 30 31 31 34 35 29 30 32 29 30 30 26
24 32 35 35 44 43 43 41 37 33 31 29 26 25 25 27 28 27 26 32 33 33 32 37 36 36 35 37 38 36 36 35
27 34 38 41 49 50 48 46 43 41 38 36 34 32 32 34 31 30 30 35 36 33 34 34 38 42 42 41 42 41 40 38
30 36 41 41 43 55 56 56 50 47 47 43 40 39 38 38 38 32 34 36 34 37 34 37 37 38 43 49 52 47 44 41
32 39 42 44 42 48 53 54 60 54 52 49 46 46 42 37 27 31 39 33 42 44 45 42 37 35 36 42 45 47 46 43
43 43 47 48 48 45 42 42 48 56 56 53 49 36 29 23 27 28 30 39 47 44 43 46 36 32 33 28 27 28 36 36
54 46 48 54 59 52 43 43 36 34 38 36 36 33 30 29 26 26 25 34 34 30 26 26 25 22 19 21 31 35 25 30
66 56 41 52 63 64 49 47 42 36 37 32 31 35 34 28 26 24 24 25 35 33 27 31 28 27 32 27 31 31 29 32
63 58 33 53 70 72 69 51 49 44 40 34 34 30 31 28 28 27 26 34 35 29 29 31 35 27 30 29 28 30 31 30
54 46 38 52 72 74 60 65 64 57 43 39 32 29 31 30 28 26 29 39 37 34 33 37 39 30 30 26 29 28 38 38
44 38 39 51 68 75 58 68 55 43 44 34 30 29 30 32 28 32 30 33 34 36 37 39 39 34 28 28 29 31 29 32
47 42 38 43 57 58 52 55 52 42 38 34 29 25 29 31 31 30 34 34 37 39 37 36 35 30 31 32 32 24 26 31
41 38 40 47 47 48 48 45 44 41 34 28 26 24 27 29 29 34 36 40 41 38 35 32 31 31 28 30 26 24 23 23
30 34 39 43 42 48 41 42 37 35 28 25 24 23 26 28 32 34 37 43 38 35 34 31 32 27 26 26 22 22 24 22
26 28 35 36 45 44 42 41 37 33 24 23 21 24 25 29 27 41 45 42 35 34 31 32 30 27 29 26 22 22 25 24
21 26 32 38 45 44 39 36 31 25 21 19 18 20 22 23 32 42 41 35 33 29 25 28 24 34 31 29 30 23 15 17
22 28 34 38 40 44 35 33 27 23 21 17 18 16 22 24 27 26 29 31 29 25 24 25 30 28 25 25 34 22 16 16
25 30 35 38 42 39 37 28 25 18 15 14 13 15 17 21 24 30 30 23 21 18 29 27 27 26 25 26 35 30 18 12
Wind_Direction_500mb
191 191 195 186 193 193 195 203 206 215 226 246 264 282 303 316 316 295 276 278 287 289 282 279 271 266 256 251 260 272 269 270
210 205 213 198 200 200 202 206 213 220 230 245 264 280 298 310 314 296 280 282 281 281 278 276 268 265 261 259 256 264 261 261
220 214 217 215 210 209 210 212 218 227 236 246 260 273 281 289 302 293 285 282 279 279 273 273 266 263 260 257 256 257 258 253
223 221 212 234 217 214 217 220 224 230 239 247 257 269 274 280 288 286 277 272 280 279 275 274 273 265 258 259 257 257 257 255
237 228 222 223 227 219 220 223 227 232 239 246 255 264 271 277 282 294 297 282 275 277 279 282 277 267 259 257 258 258 254 255
257 236 228 225 222 223 221 229 228 232 239 246 253 260 268 274 273 279 295 284 283 283 282 283 281 275 263 256 256 257 257 254
261 247 236 225 224 220 213 220 237 234 237 245 252 251 266 272 264 255 251 261 275 284 277 279 284 289 275 254 257 265 259 244
275 270 239 229 221 218 217 213 221 220 224 231 236 241 245 252 259 265 273 287 281 286 299 287 296 287 256 252 245 257 235 236
279 263 243 223 231 217 211 214 213 214 217 222 230 239 245 249 262 261 258 257 273 279 269 265 253 258 253 249 252 254 241 236
275 263 254 225 230 231 210 212 211 209 216 219 226 237 244 245 252 251 254 253 260 254 261 259 253 255 260 263 243 243 251 231
273 262 250 225 226 234 226 201 213 207 208 215 222 232 247 249 251 248 259 267 257 253 254 250 258 243 254 249 248 241 247 234
265 259 244 224 220 230 228 205 210 212 205 214 223 227 234 248 254 251 254 259 264 268 259 250 249 244 243 248 253 248 233 228
260 258 245 222 215 222 212 205 208 209 210 213 221 227 243 251 252 251 258 254 254 260 265 255 248 243 237 244 241 240 227 224
260 250 239 212 204 207 203 205 206 207 206 212 221 230 242 247 256 262 254 258 266 268 260 256 247 233 232 243 241 228 224 208
256 243 215 207 197 199 196 196 197 209 212 216 228 237 240 249 256 256 256 262 267 262 259 243 235 227 241 241 238 228 212 208
236 217 208 192 187 186 187 190 197 205 211 221 232 239 244 256 259 260 261 267 262 259 250 240 230 233 238 236 224 207 209 210
213 197 187 179 179 177 185 188 198 203 217 226 237 239 248 264 263 260 265 265 264 259 239 225 222 236 238 231 204 187 189 201
192 182 174 169 172 167 180 181 179 189 195 228 240 259 260 275 257 271 267 262 260 237 234 232 228 233 229 218 196 183 197 205
181 170 162 162 162 167 173 182 187 197 219 224 228 256 252 266 253 253 266 254 244 222 232 235 237 234 222 203 199 213 226 247
Wind_Speed_850mb
28 32 27 30 33 36 33 30 26 23 19 17 15 15 16 20 20 19 21 24 25 27 27 27 24 23 23 27 29 26 23 23
24 28 31 35 37 39 38 35 32 28 24 23 20 20 21 24 26 21 23 26 30 31 31 34 35 29 30 32 29 30 30 26
24 32 35 35 44 43 43 41 37 33 31 29 26 25 25 27 28 27 26 32 33 33 32 37 36 36 35 37 38 36 36 35
27 34 38 41 49 50 48 46 43 41 38 36 34 32 32 34 31 30 30 35 36 33 34 34 38 42 42 41 42 41 40 38
30 36 41 41 43 55 56 56 50 47 47 43 40 39 38 38 38 32 34 36 34 37 34 37 37 38 43 49 52 47 44 41
32 39 42 44 42 48 53 54 60 54 52 49 46 46 42 37 27 31 39 33 42 44 45 42 37 35 36 42 45 47 46 43
43 43 47 48 48 45 42 42 48 56 56 53 49 36 29 23 27 28 30 39 47 44 43 46 36 32 33 28 27 28 36 36
54 46 48 54 59 52 43 43 36 34 38 36 36 33 30 29 26 26 25 34 34 30 26 26 25 22 19 21 31 35 25 30
66 56 41 52 63 64 49 47 42 36 37 32 31 35 34 28 26 24 24 25 35 33 27 31 28 27 32 27 31 31 29 32
63 58 33 53 70 72 69 51 49 44 40 34 34 30 31 28 28 27 26 34 35 29 29 31 35 27 30 29 28 30 31 30
54 46 38 52 72 74 60 65 64 57 43 39 32 29 31 30 28 26 29 39 37 34 33 37 39 30 30 26 29 28 38 38
44 38 39 51 68 75 58 68 55 43 44 34 30 29 30 32 28 32 30 33 34 36 37 39 39 34 28 28 29 31 29 32
47 42 38 43 57 58 52 55 52 42 38 34 29 25 29 31 31 30 34 34 37 39 37 36 35 30 31 32 32 24 26 31
41 38 40 47 47 48 48 45 44 41 34 28 26 24 27 29 29 34 36 40 41 38 35 32 31 31 28 30 26 24 23 23
30 34 39 43 42 48 41 42 37 35 28 25 24 23 26 28 32 34 37 43 38 35 34 31 32 27 26 26 22 22 24 22
26 28 35 36 45 44 42 41 37 33 24 23 21 24 25 29 27 41 45 42 35 34 31 32 30 27 29 26 22 22 25 24
21 26 32 38 45 44 39 36 31 25 21 19 18 20 22 23 32 42 41 35 33 29 25 28 24 34 31 29 30 23 15 17
22 28 34 38 40 44 35 33 27 23 21 17 18 16 22 24 27 26 29 31 29 25 24 25 30 28 25 25 34 22 16 16
25 30 35 38 42 39 37 28 25 18 15 14 13 15 17 21 24 30 30 23 21 18 29 27 27 26 25 26 35 30 18 12
Wind_Direction_850mb
191 191 195 186 193 193 195 203 206 215 226 246 264 282 303 316 316 295 276 278 287 289 282 279 271 266 256 251 260 272 269 270
210 205 213 198 200 200 202 206 213 220 230 245 264 280 298 310 314 296 280 282 281 281 278 276 268 265 261 259 256 264 261 261
220 214 217 215 210 209 210 212 218 227 236 246 260 273 281 289 302 293 285 282 279 279 273 273 266 263 260 257 256 257 258 253
223 221 212 234 217 214 217 220 224 230 239 247 257 269 274 280 288 286 277 272 280 279 275 274 273 265 258 259 257 257 257 255
237 228 222 223 227 219 220 223 227 232 239 246 255 264 271 277 282 294 297 282 275 277 279 282 277 267 259 257 258 258 254 255
257 236 228 225 222 223 221 229 228 232 239 246 253 260 268 274 273 279 295 284 283 283 282 283 281 275 263 256 256 257 257 254
261 247 236 225 224 220 213 220 237 234 237 245 252 251 266 272 264 255 251 261 275 284 277 279 284 289 275 254 257 265 259 244
275 270 239 229 221 218 217 213 221 220 224 231 236 241 245 252 259 265 273 287 281 286 299 287 296 287 256 252 245 257 235 236
279 263 243 223 231 217 211 214 213 214 217 222 230 239 245 249 262 261 258 257 273 279 269 265 253 258 253 249 252 254 241 236
275 263 254 225 230 231 210 212 211 209 216 219 226 237 244 245 252 251 254 253 260 254 261 259 253 255 260 263 243 243 251 231
273 262 250 225 226 234 226 201 213 207 208 215 222 232 247 249 251 248 259 267 257 253 254 250 258 243 254 249 248 241 247 234
265 259 244 224 220 230 228 205 210 212 205 214 223 227 234 248 254 251 254 259 264 268 259 250 249 244 243 248 253 248 233 228
260 258 245 222 215 222 212 205 208 209 210 213 221 227 243 251 252 251 258 254 254 260 265 255 248 243 237 244 241 240 227 224
260 250 239 212 204 207 203 205 206 207 206 212 221 230 242 247 256 262 254 258 266 268 260 256 247 233 232 243 241 228 224 208
256 243 215 207 197 199 196 196 197 209 212 216 228 237 240 249 256 256 256 262 267 262 259 243 235 227 241 241 238 228 212 208
236 217 208 192 187 186 187 190 197 205 211 221 232 239 244 256 259 260 261 267 262 259 250 240 230 233 238 236 224 207 209 210
213 197 187 179 179 177 185 188 198 203 217 226 237 239 248 264 263 260 265 265 264 259 239 225 222 236 238 231 204 187 189 201
192 182 174 169 172 167 180 181 179 189 195 228 240 259 260 275 257 271 267 262 260 237 234 232 228 233 229 218 196 183 197 205
181 170 162 162 162 167 173 182 187 197 219 224 228 256 252 266 253 253 266 254 244 222 232 235 237 234 222 203 199 213 226 247